�N����,����,�~����,�C��,���x,�C��,����,���ϕ���,�ő�u�ԕ���,�ő厞����,���˗�,�I�_���x,�n�����x,�ő啗���N��,DTYPE
"20/12/07","00:10",0.0,3.8,88.1,1019.4,292.2,1.1,1.6,308.0,0.00,2.1,9.0,"00:01:22",1
"20/12/07","00:20",0.0,3.6,88.4,1019.4,283.3,1.2,1.7,280.9,0.00,1.9,8.9,"00:11:36",1
"20/12/07","00:30",0.0,3.4,88.8,1019.0,284.1,1.2,1.8,284.4,0.00,1.8,8.9,"00:27:44",1
"20/12/07","00:40",0.0,3.6,89.0,1019.0,305.3,2.0,3.1,324.4,0.00,2.0,9.0,"00:35:52",1
"20/12/07","00:50",0.0,3.2,89.4,1019.0,323.1,2.2,2.8,323.0,0.00,1.7,8.8,"00:47:20",1
"20/12/07","01:00",0.0,2.8,89.7,1018.7,291.8,1.5,1.9,305.9,0.00,1.3,8.9,"00:59:36",1
"20/12/07","01:10",0.0,2.6,90.1,1018.7,299.0,1.5,2.1,310.4,0.00,1.2,8.6,"01:03:04",1
"20/12/07","01:20",0.0,2.6,90.4,1019.2,312.0,2.6,3.4,312.9,0.00,1.2,8.6,"01:14:48",1
"20/12/07","01:30",0.0,2.5,90.8,1019.0,304.0,2.0,2.7,315.7,0.00,1.2,8.5,"01:22:00",1
"20/12/07","01:40",0.0,2.5,91.3,1019.0,293.1,1.5,2.2,320.6,0.00,1.3,8.6,"01:30:40",1
"20/12/07","01:50",0.0,3.9,91.6,1018.5,314.2,3.0,4.3,306.0,0.00,2.7,8.6,"01:43:52",1
"20/12/07","02:00",0.0,4.8,91.5,1019.2,319.8,3.6,5.5,327.9,0.00,3.6,8.5,"01:53:28",1
"20/12/07","02:10",0.0,4.8,91.6,1019.2,303.1,2.8,4.0,322.1,0.00,3.6,8.4,"02:01:12",1
"20/12/07","02:20",0.0,4.7,91.7,1019.2,297.2,2.5,4.0,314.0,0.00,3.5,8.5,"02:10:32",1
"20/12/07","02:30",0.0,4.3,91.8,1019.0,279.3,1.7,3.4,319.0,0.00,3.1,8.6,"02:29:28",1
"20/12/07","02:40",0.0,4.4,92.0,1019.0,292.7,2.1,4.2,320.6,0.00,3.3,8.6,"02:32:00",1
"20/12/07","02:50",0.0,4.1,92.1,1019.0,309.2,1.5,3.4,315.2,0.00,3.0,8.5,"02:46:40",1
"20/12/07","03:00",0.0,3.7,92.2,1019.2,329.4,1.0,2.0,318.6,0.00,2.6,8.5,"02:56:32",1
"20/12/07","03:10",0.0,3.1,92.4,1019.2,280.7,0.8,1.6,294.6,0.00,2.0,8.6,"03:08:36",1
"20/12/07","03:20",0.0,3.0,92.7,1019.2,298.9,1.7,3.1,324.3,0.00,2.0,8.3,"03:16:40",1
"20/12/07","03:30",0.0,2.9,92.8,1019.2,308.3,1.8,2.8,317.6,0.00,1.9,8.2,"03:26:48",1
"20/12/07","03:40",0.0,2.8,93.1,1019.2,300.8,1.6,3.5,310.2,0.00,1.8,8.2,"03:39:52",1
"20/12/07","03:50",0.0,3.4,93.2,1019.2,307.7,2.6,4.1,317.2,0.00,2.4,8.1,"03:49:44",1
"20/12/07","04:00",0.0,4.5,93.1,1019.2,313.4,4.1,7.8,333.8,0.00,3.5,8.4,"03:56:56",1
"20/12/07","04:10",0.0,4.9,92.9,1019.2,317.1,4.2,6.0,331.3,0.00,3.9,8.2,"04:02:16",1
"20/12/07","04:20",0.0,4.9,92.7,1019.2,327.7,3.1,5.5,338.3,0.00,3.9,8.2,"04:10:08",1
"20/12/07","04:30",0.0,4.4,92.7,1019.4,332.4,2.0,3.5,338.0,0.00,3.4,8.1,"04:26:16",1
"20/12/07","04:40",0.0,4.2,92.8,1019.7,308.1,2.2,3.3,322.9,0.00,3.2,8.3,"04:34:48",1
"20/12/07","04:50",0.0,4.0,92.8,1019.9,300.3,2.2,3.9,311.2,0.00,3.0,8.2,"04:47:12",1
"20/12/07","05:00",0.0,3.6,92.8,1019.9,292.7,1.2,2.1,323.3,0.00,2.6,8.3,"04:59:20",1
"20/12/07","05:10",0.0,3.7,93.0,1019.7,307.6,2.0,3.6,335.8,0.00,2.7,8.3,"05:06:40",1
"20/12/07","05:20",0.0,3.9,92.9,1019.7,319.9,2.2,3.7,326.6,0.00,2.9,8.1,"05:11:52",1
"20/12/07","05:30",0.0,3.8,93.0,1019.4,324.0,2.7,4.7,329.4,0.00,2.8,8.1,"05:21:12",1
"20/12/07","05:40",0.0,4.2,93.2,1019.7,324.4,3.4,4.8,333.1,0.00,3.2,8.1,"05:39:12",1
"20/12/07","05:50",0.0,4.2,93.0,1019.4,322.1,3.0,5.0,340.1,0.00,3.2,8.0,"05:48:40",1
"20/12/07","06:00",0.0,4.0,93.1,1019.7,327.4,2.5,4.2,340.7,0.00,3.0,8.2,"05:59:28",1
"20/12/07","06:10",0.0,4.0,93.2,1019.4,320.7,2.5,3.6,332.8,0.00,3.0,8.1,"06:01:20",1
"20/12/07","06:20",0.0,4.0,93.2,1019.7,325.4,2.7,4.3,316.6,0.00,3.0,8.0,"06:13:12",1
"20/12/07","06:30",0.0,3.7,93.2,1019.7,291.5,1.3,2.7,305.6,0.00,2.7,8.1,"06:22:48",1
"20/12/07","06:40",0.0,3.6,93.3,1019.7,304.8,1.5,2.2,332.5,0.00,2.7,8.1,"06:36:56",1
"20/12/07","06:50",0.0,3.7,93.4,1019.7,300.1,2.0,4.7,306.5,0.00,2.8,8.1,"06:45:28",1
"20/12/07","07:00",0.0,3.8,93.4,1019.4,304.2,2.1,3.4,334.2,0.00,2.9,8.2,"06:56:24",1
"20/12/07","07:10",0.0,3.9,93.4,1019.9,303.3,2.5,4.3,311.6,0.00,3.0,8.1,"07:06:16",1
"20/12/07","07:20",0.0,3.8,93.5,1019.9,306.3,2.1,2.8,328.0,0.00,2.9,8.0,"07:15:36",1
"20/12/07","07:30",0.0,3.7,93.5,1019.4,272.7,1.1,1.7,250.4,0.00,2.8,7.9,"07:22:00",1
"20/12/07","07:40",0.0,3.7,93.8,1019.9,275.1,1.5,2.5,323.2,0.00,2.8,7.9,"07:33:44",1
"20/12/07","07:50",0.0,4.1,93.6,1019.7,289.9,1.8,3.1,258.4,0.00,3.2,7.8,"07:41:52",1
"20/12/07","08:00",0.0,4.4,93.7,1019.7,291.2,0.7,1.4,304.6,0.02,3.5,7.9,"07:54:10",1
"20/12/07","08:10",0.0,5.2,93.7,1019.9,289.9,1.2,2.4,316.3,0.03,4.3,8.0,"08:08:04",1
"20/12/07","08:20",0.0,5.7,93.5,1020.1,280.7,1.8,2.9,273.0,0.05,4.8,8.2,"08:12:42",1
"20/12/07","08:30",0.0,5.8,93.1,1020.6,260.7,1.8,3.3,256.7,0.07,4.8,8.1,"08:25:40",1
"20/12/07","08:40",0.0,5.8,92.9,1021.1,247.3,1.5,2.2,235.6,0.09,4.8,8.3,"08:33:16",1
"20/12/07","08:50",0.0,6.3,92.5,1020.8,259.6,1.0,1.8,242.9,0.11,5.2,8.4,"08:40:26",1
"20/12/07","09:00",0.0,6.7,91.7,1021.1,252.8,1.1,1.9,238.4,0.14,5.5,8.5,"08:52:48",1
"20/12/07","09:10",0.0,7.4,90.9,1021.1,276.5,0.8,1.9,242.3,0.16,6.1,8.9,"09:00:40",1
"20/12/07","09:20",0.0,8.0,90.5,1021.1,270.4,0.8,1.9,330.0,0.19,6.6,9.1,"09:19:04",1
"20/12/07","09:30",0.0,8.4,89.3,1021.1,284.6,1.1,1.9,333.8,0.21,6.8,9.2,"09:20:08",1
"20/12/07","09:40",0.0,8.5,88.2,1020.8,215.9,0.7,1.7,242.3,0.23,6.7,9.5,"09:31:04",1
"20/12/07","09:50",0.0,8.8,86.6,1021.1,243.7,1.3,2.4,240.7,0.26,6.7,9.4,"09:44:32",1
"20/12/07","10:00",0.0,9.6,84.8,1020.6,258.8,1.0,1.7,246.8,0.28,7.2,9.7,"09:59:44",1
"20/12/07","10:10",0.0,9.7,82.1,1020.6,154.7,0.7,2.6,221.3,0.30,6.8,9.9,"10:01:12",1
"20/12/07","10:20",0.0,10.4,79.6,1020.1,261.3,1.1,1.8,236.8,0.31,7.1,10.1,"10:11:52",1
"20/12/07","10:30",0.0,11.0,77.4,1020.4,256.3,0.5,1.7,239.3,0.33,7.2,10.2,"10:20:08",1
"20/12/07","10:40",0.0,11.3,74.9,1020.6,229.8,0.6,2.4,230.8,0.34,7.1,10.9,"10:33:36",1
"20/12/07","10:50",0.0,11.7,73.1,1020.4,219.1,0.7,1.8,209.7,0.36,7.1,10.8,"10:46:24",1
"20/12/07","11:00",0.0,11.7,71.5,1020.1,142.9,0.8,2.4,101.7,0.37,6.8,10.9,"10:52:24",1
"20/12/07","11:10",0.0,11.8,70.1,1019.7,108.7,1.0,2.6,110.8,0.38,6.6,11.2,"11:07:44",1
"20/12/07","11:20",0.0,12.3,69.5,1019.2,114.0,1.1,2.5,108.5,0.38,6.9,11.4,"11:17:12",1
"20/12/07","11:30",0.0,13.1,67.8,1019.2,225.0,0.7,2.0,39.1,0.39,7.3,11.6,"11:28:24",1
"20/12/07","11:40",0.0,13.2,66.4,1018.7,94.2,1.0,2.8,116.4,0.40,7.1,11.8,"11:37:04",1
"20/12/07","11:50",0.0,14.0,65.2,1018.0,122.9,0.7,2.0,102.7,0.40,7.6,12.2,"11:49:44",1
"20/12/07","12:00",0.0,14.2,62.9,1017.8,198.7,1.0,2.6,104.6,0.40,7.3,12.3,"11:50:40",1
"20/12/07","12:10",0.0,14.7,61.9,1017.5,116.5,0.7,2.4,117.9,0.40,7.5,12.5,"12:00:24",1
"20/12/07","12:20",0.0,15.0,60.0,1017.1,247.3,0.8,1.8,311.7,0.40,7.3,12.9,"12:15:36",1
"20/12/07","12:30",0.0,15.3,59.9,1017.1,334.3,1.0,2.0,11.5,0.40,7.6,12.9,"12:25:44",1
"20/12/07","12:40",0.0,15.8,58.2,1016.6,243.9,1.2,2.7,222.2,0.39,7.7,13.2,"12:38:32",1
"20/12/07","12:50",0.0,15.7,56.8,1016.4,239.0,2.1,3.4,233.2,0.39,7.2,13.2,"12:44:48",1
"20/12/07","13:00",0.0,15.6,56.6,1016.1,248.9,2.1,3.6,236.6,0.36,7.1,13.5,"12:53:20",1
"20/12/07","13:10",0.0,15.6,56.5,1016.4,247.2,2.2,3.9,237.1,0.37,7.0,13.6,"13:04:16",1
"20/12/07","13:20",0.0,15.6,56.4,1015.9,244.0,2.3,4.2,227.6,0.36,7.0,13.8,"13:10:02",1
"20/12/07","13:30",0.0,15.8,56.4,1016.1,253.4,2.1,3.6,248.4,0.34,7.2,13.7,"13:26:24",1
"20/12/07","13:40",0.0,16.0,55.9,1015.4,257.4,2.0,3.5,280.2,0.33,7.2,13.8,"13:30:40",1
"20/12/07","13:50",0.0,16.3,56.0,1015.9,274.2,1.7,3.1,325.5,0.31,7.6,13.9,"13:41:12",1
"20/12/07","14:00",0.0,16.2,54.9,1016.1,252.5,2.0,4.8,226.5,0.30,7.2,14.2,"13:58:08",1
"20/12/07","14:10",0.0,16.2,55.3,1015.9,238.0,2.2,3.9,232.1,0.27,7.3,13.9,"14:09:36",1
"20/12/07","14:20",0.0,16.3,53.9,1015.6,269.9,2.0,4.2,297.4,0.22,7.0,14.1,"14:16:40",1
"20/12/07","14:30",0.0,16.2,54.1,1015.6,256.9,2.1,3.5,229.9,0.19,7.0,14.0,"14:27:20",1
"20/12/07","14:40",0.0,16.6,53.1,1015.2,259.6,2.1,5.8,229.8,0.22,7.1,14.1,"14:31:28",1
"20/12/07","14:50",0.0,16.1,53.6,1015.6,275.5,2.0,3.4,296.5,0.14,6.7,14.1,"14:40:32",1
"20/12/07","15:00",0.0,16.3,53.3,1015.9,274.7,1.8,3.1,251.3,0.16,6.8,14.0,"14:55:12",1
"20/12/07","15:10",0.0,16.1,53.6,1015.4,275.1,1.8,4.7,344.7,0.14,6.7,13.9,"15:01:52",1
"20/12/07","15:20",0.0,15.9,53.9,1015.4,254.5,1.6,3.2,231.0,0.09,6.6,14.1,"15:10:02",1
"20/12/07","15:30",0.0,15.6,54.4,1015.4,241.1,2.0,3.1,236.0,0.11,6.5,13.6,"15:20:08",1
"20/12/07","15:40",0.0,15.4,55.1,1015.6,253.8,1.7,3.3,236.6,0.06,6.5,13.5,"15:38:24",1
"20/12/07","15:50",0.0,15.1,56.8,1015.9,258.5,1.6,2.7,237.0,0.04,6.6,13.5,"15:42:08",1
"20/12/07","16:00",0.0,14.6,58.5,1016.1,277.7,1.3,2.4,267.6,0.00,6.6,13.4,"15:52:32",1
"20/12/07","16:10",0.0,14.3,60.9,1015.9,320.5,1.6,2.5,329.0,0.01,6.9,13.3,"16:03:04",1
"20/12/07","16:20",0.0,14.3,61.9,1015.4,316.7,1.5,1.8,324.3,0.02,7.1,13.3,"16:11:12",1
"20/12/07","16:30",0.0,13.8,63.1,1015.4,294.5,1.1,1.9,330.3,0.00,6.9,13.0,"16:26:40",1
"20/12/07","16:40",0.0,13.4,64.7,1015.4,282.6,1.3,2.0,266.7,0.00,6.9,12.9,"16:35:06",1
"20/12/07","16:50",0.0,12.8,66.7,1015.4,314.0,1.5,2.8,315.9,0.00,6.8,12.9,"16:46:42",1
"20/12/07","17:00",0.0,12.3,69.0,1015.6,325.3,2.1,2.8,321.6,0.00,6.8,12.8,"16:56:32",1
"20/12/07","17:10",0.0,12.0,70.4,1015.4,327.5,2.1,2.9,316.0,0.00,6.8,12.6,"17:04:56",1
"20/12/07","17:20",0.0,11.7,71.1,1015.9,316.8,2.1,3.2,344.5,0.00,6.7,12.6,"17:12:30",1
"20/12/07","17:30",0.0,11.2,72.1,1015.9,317.8,1.7,2.7,324.1,0.00,6.4,12.4,"17:28:02",1
"20/12/07","17:40",0.0,11.1,73.0,1015.9,322.2,2.3,3.6,322.5,0.00,6.5,12.3,"17:38:36",1
"20/12/07","17:50",0.0,11.3,73.3,1016.4,329.8,2.7,4.3,332.8,0.00,6.7,12.2,"17:43:16",1
"20/12/07","18:00",0.0,11.3,73.8,1016.1,330.3,2.5,3.5,316.4,0.00,6.8,12.1,"17:56:40",1
"20/12/07","18:10",0.0,11.1,74.4,1015.6,330.9,2.3,3.7,333.2,0.00,6.8,12.1,"18:07:40",1
"20/12/07","18:20",0.0,11.0,74.9,1016.1,328.9,2.3,3.6,325.7,0.00,6.8,12.2,"18:13:20",1
"20/12/07","18:30",0.0,11.1,75.2,1016.1,322.8,2.8,3.9,315.2,0.00,6.9,12.0,"18:24:54",1
"20/12/07","18:40",0.0,11.1,75.3,1016.4,318.8,2.2,3.2,316.7,0.00,6.9,11.9,"18:38:22",1
"20/12/07","18:50",0.0,11.1,75.4,1016.4,325.3,2.5,3.4,333.2,0.00,7.0,11.6,"18:40:32",1
"20/12/07","19:00",0.0,11.1,75.5,1016.6,327.4,1.8,2.7,337.4,0.00,7.0,11.6,"18:53:36",1
"20/12/07","19:10",0.0,10.9,75.6,1016.8,307.2,1.5,2.0,330.4,0.00,6.8,11.9,"19:09:24",1
"20/12/07","19:20",0.0,11.0,75.7,1016.4,330.8,1.8,2.9,336.3,0.00,6.9,12.0,"19:12:24",1
"20/12/07","19:30",0.0,11.0,75.5,1016.6,332.6,2.2,4.3,339.9,0.00,6.9,11.7,"19:28:18",1
"20/12/07","19:40",0.0,11.1,75.3,1017.3,330.6,2.3,3.6,335.0,0.00,6.9,11.8,"19:33:44",1
"20/12/07","19:50",0.0,11.2,75.0,1017.1,333.0,2.6,3.9,323.4,0.00,7.0,11.7,"19:48:22",1
"20/12/07","20:00",0.0,11.0,74.9,1016.8,333.8,2.8,4.8,331.4,0.00,6.8,11.6,"19:54:30",1
"20/12/07","20:10",0.0,10.7,75.5,1016.8,330.3,2.2,3.3,340.2,0.00,6.6,11.5,"20:03:22",1
"20/12/07","20:20",0.0,10.5,76.1,1016.4,329.7,2.0,2.7,325.0,0.00,6.5,11.7,"20:10:08",1
"20/12/07","20:30",0.0,10.3,76.6,1016.6,322.0,2.0,3.5,335.9,0.00,6.4,11.6,"20:20:16",1
"20/12/07","20:40",0.0,10.1,77.1,1015.9,325.9,2.1,2.8,329.7,0.00,6.3,11.3,"20:30:16",1
"20/12/07","20:50",0.0,9.9,77.9,1015.6,328.9,2.3,4.3,323.2,0.00,6.3,11.5,"20:49:44",1
"20/12/07","21:00",0.0,9.8,78.8,1015.6,322.2,3.4,4.0,335.9,0.00,6.3,11.2,"20:52:00",1
"20/12/07","21:10",0.0,9.5,79.4,1015.9,313.4,2.7,3.9,321.7,0.00,6.2,11.2,"21:01:36",1
"20/12/07","21:20",0.0,9.0,80.0,1015.6,297.7,2.0,3.2,309.0,0.00,5.8,11.0,"21:12:40",1
"20/12/07","21:30",0.0,8.5,80.6,1015.9,288.8,1.3,2.1,305.8,0.00,5.4,11.2,"21:21:28",1
"20/12/07","21:40",0.0,8.3,81.8,1015.6,322.9,2.2,4.0,318.8,0.00,5.4,10.8,"21:38:56",1
"20/12/07","21:50",0.0,8.3,82.6,1015.9,301.2,2.0,4.2,329.2,0.00,5.6,11.1,"21:40:02",1
"20/12/07","22:00",0.0,8.6,83.4,1016.1,321.5,3.7,4.8,327.2,0.00,6.0,10.9,"21:51:20",1
"20/12/07","22:10",0.0,8.6,83.8,1016.1,325.3,3.2,4.7,333.9,0.00,6.1,10.8,"22:07:28",1
"20/12/07","22:20",0.0,8.4,84.0,1016.1,310.6,2.0,3.9,336.7,0.00,5.9,10.8,"22:14:32",1
"20/12/07","22:30",0.0,8.3,84.4,1016.1,323.9,2.0,2.6,325.9,0.00,5.9,10.7,"22:25:12",1
"20/12/07","22:40",0.0,8.4,84.6,1016.6,326.3,2.3,3.6,333.9,0.00,6.0,10.8,"22:35:28",1
"20/12/07","22:50",0.0,8.5,84.5,1016.4,317.5,1.8,3.5,330.4,0.00,6.1,10.6,"22:43:52",1
"20/12/07","23:00",0.0,8.1,84.4,1016.4,313.3,0.6,2.1,319.2,0.00,5.7,10.7,"22:50:32",1
"20/12/07","23:10",0.0,7.6,84.6,1016.4,241.6,0.3,0.9,275.1,0.00,5.2,10.4,"23:06:24",1
"20/12/07","23:20",0.0,7.2,85.1,1016.6,293.0,1.3,2.8,324.3,0.00,4.9,10.4,"23:19:36",1
"20/12/07","23:30",0.0,7.0,85.3,1016.6,313.9,2.0,2.7,322.9,0.00,4.7,10.4,"23:23:28",1
"20/12/07","23:40",0.0,6.8,85.8,1016.1,301.1,0.8,1.9,317.5,0.00,4.6,10.2,"23:33:04",1
"20/12/07","23:50",0.0,6.3,86.2,1016.1,300.9,1.5,1.9,318.8,0.00,4.2,10.0,"23:46:56",1
"20/12/07","24:00",0.0,6.1,86.6,1016.4,305.6,1.3,2.4,330.3,0.00,4.1,10.0,"23:51:20",1
